Change the Weather History Date:

Saturday, January 10, 2015

  Actual Average Record
Temperature  
Mean Temperature 18 °F -  
Max Temperature 22 °F 31 °F 50 °F (2000)
Min Temperature 12 °F 16 °F -5 °F (2004)
Degree Days  
Heating Degree Days 48    
Moisture  
Dew Point 0 °F    
Average Humidity 47    
Maximum Humidity 62    
Minimum Humidity 35    
Precipitation  
Precipitation 0.00 in - - ()
Snow  
Snow 0.00 in - - ()
Snow Depth 2.00 in    
Sea Level Pressure  
Sea Level Pressure 30.31 in    
Wind  
Wind Speed 8 mph (WSW)    
Max Wind Speed 15 mph    
Max Gust Speed 23 mph    
Visibility 10 miles    
Events      
Averages and records for this station are not official NWS values.
T = Trace of Precipitation, MM = Missing Value Source: NWS Daily Summary

Daily Weather History Graph

Daily Weather History Graph

Search for Another Location

Airport or City:

Trip Planner

Search our weather history database for the weather conditions in past years. The results will help you decide how hot, cold, wet, or windy it might be!

Date:

Astronomy

Jan. 10, 2015 Rise Set
Actual Time 7:13 AM EST 4:27 PM EST
Civil Twilight 6:42 AM EST 4:59 PM EST
Nautical Twilight 6:06 AM EST 5:35 PM EST
Astronomical Twilight 5:32 AM EST 6:09 PM EST
Moon 10:02 PM EST (1/10) 9:50 AM EST (1/10)
Length of Visible Light 10h 17m
Length of Day
9h 13m
Waning Gibbous, 75% of the Moon is Illuminated
Jan 10
Waning Gibbous
Jan 13
Last Quarter
Jan 20
New
Jan 26
First Quarter
Feb 3
Full

Hourly Weather History & Observations

Time (EST) Temp. Windchill Dew Point Humidity Pressure Visibility Wind Dir Wind Speed Gust Speed Precip Events Conditions
12:58 AM 18.0 °F 9.8 °F 4.1 °F 55% 30.12 in 10.0 mi WSW 5.8 mph - N/A   Partly Cloudy
1:58 AM 17.2 °F 7.8 °F 3.4 °F 55% 30.14 in 10.0 mi WSW 6.9 mph - N/A   Partly Cloudy
2:58 AM 17.1 °F 8.7 °F 3.0 °F 54% 30.16 in 10.0 mi West 5.8 mph - N/A   Clear
3:58 AM 15.8 °F 8.6 °F 2.8 °F 57% 30.18 in 10.0 mi WSW 4.6 mph - N/A   Clear
4:58 AM 13.8 °F 4.9 °F 2.8 °F 62% 30.19 in 10.0 mi WSW 5.8 mph - N/A   Clear
5:58 AM 14.7 °F 3.8 °F 2.3 °F 58% 30.21 in 10.0 mi WSW 8.1 mph - N/A   Partly Cloudy
6:58 AM 14.0 °F 3.9 °F 1.6 °F 58% 30.23 in 10.0 mi WSW 6.9 mph - N/A   Partly Cloudy
7:58 AM 14.9 °F 5.0 °F 0.7 °F 53% 30.27 in 10.0 mi WSW 6.9 mph - N/A   Partly Cloudy
8:58 AM 16.2 °F 5.5 °F 0.9 °F 51% 30.30 in 10.0 mi West 8.1 mph - N/A   Clear
9:58 AM 19.2 °F 5.3 °F 0.5 °F 44% 30.31 in 10.0 mi WSW 15.0 mph 21.9 mph N/A   Clear
10:58 AM 20.8 °F 7.3 °F -0.0 °F 40% 30.32 in 10.0 mi West 15.0 mph 20.7 mph N/A   Clear
11:58 AM 21.4 °F 8.5 °F -1.5 °F 37% 30.31 in 10.0 mi WNW 13.8 mph 23.0 mph N/A   Partly Cloudy
12:58 PM 22.3 °F 9.2 °F -0.6 °F 37% 30.31 in 10.0 mi WSW 15.0 mph - N/A   Partly Cloudy
1:58 PM 22.6 °F 11.9 °F -1.7 °F 35% 30.32 in 10.0 mi West 10.4 mph - N/A   Partly Cloudy
2:58 PM 22.6 °F 11.3 °F -1.1 °F 36% 30.32 in 10.0 mi WSW 11.5 mph - N/A   Partly Cloudy
3:58 PM 21.6 °F 9.9 °F -1.5 °F 37% 30.35 in 10.0 mi WSW 11.5 mph - N/A   Partly Cloudy
4:58 PM 19.2 °F 9.3 °F -1.5 °F 40% 30.37 in 10.0 mi WSW 8.1 mph - N/A   Partly Cloudy
5:58 PM 17.6 °F 10.7 °F -1.5 °F 43% 30.40 in 10.0 mi SSW 4.6 mph - N/A   Clear
6:58 PM 16.3 °F 7.8 °F -2.6 °F 43% 30.40 in 10.0 mi SW 5.8 mph - N/A   Clear
7:58 PM 15.3 °F 7.9 °F -2.2 °F 46% 30.41 in 10.0 mi SW 4.6 mph - N/A   Clear
8:58 PM 13.5 °F 5.8 °F -2.7 °F 49% 30.43 in 10.0 mi WSW 4.6 mph - N/A   Clear
9:58 PM 14.0 °F 3.9 °F -4.0 °F 45% 30.46 in 10.0 mi WSW 6.9 mph - N/A   Clear
10:58 PM 14.2 °F 4.1 °F -4.9 °F 43% 30.47 in 10.0 mi WSW 6.9 mph - N/A   Partly Cloudy
11:58 PM 12.6 °F 3.4 °F -4.4 °F 47% 30.49 in 10.0 mi WSW 5.8 mph - N/A   Partly Cloudy